Location: Unspecified
(0.0000°N, 0.0000°E)
Time: 18:09:27
(UTC+00:00)

Hubble Space Telescope - Pass Details

Date: 22 October 2021
Orbit: 535 x 538 km, 28.5° (Epoch: 23 October)

Event Time Altitude Azimuth Distance (km) Brightness Sun altitude
Rises 18:00:37 0° 240° (WSW) 2,666 6.0 -4.0°
Reaches altitude 10° 18:02:52 10° 240° (WSW) 1,774 4.9 -4.5°
Maximum altitude 18:06:59 87° 331° (NNW) 534 0.8 -5.5°
Drops below altitude 10° 18:11:05 10° 59° (ENE) 1,770 2.8 -6.5°
Enters shadow 18:11:45 - 59° (ENE) 2,031 3.1 -6.7°
